[[{"header":{"parameterUnit":"m.s-1","parameterCategory":1,"la1":30.2991,"la2":30.254,"lo1":-89.0895,"lo2":-89.0444,"dy":0.0017,"dx":0.0017,"nx":28,"ny":28,"refTime":"2023-08-18T09:00:00:Z","depth":0,"parameterNumber":2,"parameterNumberName":"U-component_of_WINDS"},"data":[0,0,0,0,0,0,0,0,0,0,0,0,0,0,0,0,0,0,0,0,0,0,0,0,0,0,0,0,0,0,0,0,0,0,0,0,0,0,0,0,0,0,0,0,0,0,0,0,0,0,0,0,0,0,0,0,0,0,3.4327,3.4329,0,3.4458,3.4459,3.4461,3.4423,3.442,3.4417,3.4415,3.4549,3.4555,3.4561,0,0,0,0,0,0,0,0,0,0,0,0,0,3.4045,3.405,3.4327,3.4329,3.4331,3.4458,3.446,3.4461,3.4423,3.442,3.4416,3.4413,3.4547,3.4554,3.4561,0,0,0,0,0,0,0,0,0,0,0,0,0,3.4171,3.4052,3.4327,3.4327,3.4328,3.4457,3.446,3.4462,3.4424,3.442,3.4416,3.4412,3.4544,3.4553,3.4562,3.47,0,0,3.459,3.4594,0,0,0,0,0,0,0,0,3.4163,3.4181,3.4325,3.4327,3.4329,3.442,3.4409,3.4542,3.4425,3.4387,3.4414,3.441,3.4509,3.4521,3.4554,3.4706,3.4712,3.4591,3.4596,3.46,3.4603,0,0,0,0,0,0,0,3.4155,3.4175,3.4379,3.4327,3.433,3.432,3.4333,3.4434,3.4469,3.439,3.4388,3.4404,3.4509,3.4546,3.4557,3.4714,3.4591,3.4599,3.4604,3.4608,3.4984,3.4989,0,0,0,0,0,0,3.4145,3.4168,3.4375,3.4383,3.4234,3.4328,3.4343,3.4395,3.4468,3.4476,3.4407,3.4402,3.4532,3.4547,3.4562,3.4727,3.46,3.4609,3.4614,3.498,3.4985,3.499,0,0,0,0,0,0,3.4139,3.4164,3.437,3.4275,3.43,3.4338,3.4395,3.4399,3.4436,3.4481,3.4487,3.4438,3.4529,3.4549,3.4666,3.4731,3.4613,3.4621,3.4975,3.4982,3.4988,3.5059,0,0,0,0,0,0,3.4131,3.4162,3.4214,3.4276,3.4306,3.4472,3.44,3.4405,3.4451,3.4445,3.4511,3.4518,3.4528,3.4652,3.4675,3.4742,3.4628,3.4969,3.4978,3.4986,3.5051,3.5068,3.5082,0,0,0,0,0,3.4121,3.423,3.4217,3.4242,3.4372,3.4475,3.4492,3.4501,3.4457,3.451,3.4539,3.4516,3.4721,3.4664,3.4689,3.476,3.4965,3.4975,3.4985,3.5044,3.5065,3.5082,0,0,0,0,0,0,3.4175,3.4238,3.4225,3.4357,3.4411,3.4469,3.4536,3.4522,3.4589,3.4581,3.4589,3.4604,3.4723,3.4754,3.469,3.4897,3.4836,3.4852,3.4873,3.4892,3.4907,3.4897,3.4636,0,0,0,0,0,3.4202,3.428,3.4331,3.4443,3.447,3.4499,3.4544,3.4546,3.4602,3.4625,3.4663,3.4718,3.4795,3.4845,3.4919,3.5056,3.5069,3.5117,3.5132,3.5144,3.5158,3.5232,3.5253,3.5024,3.5024,3.5023,0,0,3.4259,3.4303,3.4352,3.4454,3.4497,3.4577,3.4518,3.4606,3.4666,3.4638,3.4751,3.478,3.4843,3.497,3.5028,3.4999,3.5224,3.5157,3.5167,3.5173,3.5244,3.5266,3.5285,3.5031,3.5029,3.5028,0,0,3.4403,3.4445,3.4542,3.4586,3.465,3.4668,3.4692,3.4752,3.477,3.4883,3.4864,3.4935,3.5067,3.5113,3.5153,3.5315,3.5296,3.5339,3.5418,3.549,3.5508,3.5524,3.5582,3.5602,3.5352,3.5352,3.5352,0,3.4466,3.4587,3.4594,3.4684,3.4729,3.4708,3.4806,3.4848,3.4933,3.4965,3.4931,3.5096,3.5137,3.5274,3.5314,3.5347,3.5374,3.5331,3.5505,3.5521,3.5537,3.5591,3.5613,3.5357,3.5356,3.5356,3.5355,0,3.4661,3.4745,3.4816,3.4898,3.4952,3.5045,3.5066,3.512,3.5117,3.5138,3.5253,3.5302,3.5384,3.5417,3.5415,3.5554,3.5534,3.5503,3.5442,3.5563,3.5614,3.5635,3.5363,3.5362,3.536,3.5359,0,0,3.4843,3.4928,3.4954,3.4991,3.506,3.5125,3.5218,3.5298,3.5343,3.5403,3.5481,3.5593,3.5564,3.561,3.5614,3.5677,3.5801,3.5638,3.564,3.5666,3.5957,3.5979,3.6003,3.579,3.5794,3.5797,3.5951,0,3.4993,3.5156,3.5165,3.5312,3.539,3.537,3.5451,3.5502,3.5525,3.5594,3.5619,3.5698,3.5655,3.5682,3.5744,3.5773,3.586,3.5762,3.5862,3.5865,3.5846,3.603,3.6055,3.6198,3.5972,3.5975,3.5978,0,3.5191,3.5256,3.5411,3.5469,3.5502,3.5574,3.5648,3.5714,3.5772,3.5784,3.5835,3.5829,3.5924,3.586,3.5991,3.5924,3.5965,3.5986,3.5991,3.6,3.5928,3.6044,3.6244,3.6266,3.6009,3.6007,3.6005,0,3.5307,3.5434,3.5543,3.5575,3.5646,3.5697,3.5729,3.5782,3.583,3.5895,3.5925,3.6001,3.6042,3.61,3.6114,3.6067,3.6245,3.6182,3.6257,3.6257,3.6295,3.6292,3.6504,3.6323,3.6322,3.6322,3.6321,0,3.5474,3.557,3.5596,3.5663,3.577,3.5779,3.5884,3.5912,3.596,3.6032,3.602,3.6088,3.6103,3.6174,3.6186,3.6292,3.6311,3.6323,3.6325,3.6324,3.6322,3.6351,3.6341,3.6327,3.6326,3.6325,3.6324,0,3.5622,3.5644,3.5762,3.5819,3.5835,3.5911,3.596,3.6024,3.6045,3.6136,3.6158,3.6191,3.6274,3.6294,3.6393,3.6401,3.6526,3.6519,3.6507,3.6506,3.658,3.6572,3.6816,3.6849,3.6647,3.6649,3.665,0,3.5727,3.58,3.5865,3.5912,3.5946,3.6022,3.6071,3.6082,3.6133,3.6204,3.626,3.6341,3.6407,3.654,3.6573,3.6648,3.6642,3.6723,3.6654,3.665,3.6643,3.6638,3.6645,3.6736,3.6738,3.674,3.6741,0,3.5911,3.5918,3.5987,3.6061,3.6119,3.6178,3.6234,3.6273,3.6293,3.635,3.6435,3.6486,3.6586,3.6667,3.6743,3.6776,3.6762,3.6763,3.6784,3.6783,3.6773,3.6779,3.6542,3.6757,3.6755,3.6754,3.6753,3.6753,3.604,3.6104,3.6159,3.6237,3.628,3.6333,3.6396,3.6425,3.6495,3.6577,3.658,3.6672,3.6727,3.6828,3.6865,3.6937,3.6912,3.6943,3.6951,3.6958,3.6964,3.6762,3.6951,3.695,3.695,3.695,3.6949,0,3.6223,3.6257,3.6329,3.6407,3.6469,3.645,3.6511,3.6563,3.6644,3.6697,3.6761,3.6858,3.6936,3.6975,3.7053,3.7103,3.7098,3.7123,3.7119,3.7127,3.6982,3.6956,3.7125,3.7125,3.7125,3.7125,3.7125,3.7125,3.6325,3.6431,3.6445,3.6572,3.6606,3.6695,3.6732,3.678,3.6822,3.693,3.6995,3.702,3.7067,3.7148,3.7218,3.7228,3.7257,3.7284,3.729,3.7155,3.7137,3.712,3.7095,3.729,3.7291,3.7429,3.743,3.7431]},{"header":{"parameterUnit":"m.s-1","parameterCategory":1,"la1":30.2991,"la2":30.254,"lo1":-89.0895,"lo2":-89.0444,"dy":0.0017,"dx":0.0017,"nx":28,"ny":28,"refTime":"2023-08-18T09:00:00:Z","depth":0,"parameterNumber":3,"parameterNumberName":"V-component_of_WINDS"},"data":[0,0,0,0,0,0,0,0,0,0,0,0,0,0,0,0,0,0,0,0,0,0,0,0,0,0,0,0,0,0,0,0,0,0,0,0,0,0,0,0,0,0,0,0,0,0,0,0,0,0,0,0,0,0,0,0,0,0,-0.6329,-0.6329,0,-0.634,-0.6341,-0.6341,-0.6339,-0.6339,-0.6339,-0.6339,-0.6349,-0.635,-0.635,0,0,0,0,0,0,0,0,0,0,0,0,0,-0.6307,-0.6307,-0.6329,-0.6329,-0.6329,-0.634,-0.6341,-0.6341,-0.6339,-0.6339,-0.6339,-0.6338,-0.6349,-0.635,-0.635,0,0,0,0,0,0,0,0,0,0,0,0,0,-0.6317,-0.6307,-0.6329,-0.633,-0.633,-0.634,-0.6341,-0.6341,-0.6339,-0.6339,-0.6339,-0.6338,-0.6349,-0.635,-0.635,-0.636,0,0,-0.6352,-0.6353,0,0,0,0,0,0,0,0,-0.6316,-0.6318,-0.633,-0.633,-0.633,-0.6338,-0.6337,-0.6347,-0.6339,-0.6336,-0.6339,-0.6338,-0.6346,-0.6347,-0.6349,-0.6361,-0.6361,-0.6353,-0.6353,-0.6353,-0.6353,0,0,0,0,0,0,0,-0.6316,-0.6317,-0.6334,-0.633,-0.633,-0.633,-0.6331,-0.6339,-0.6342,-0.6336,-0.6336,-0.6337,-0.6346,-0.6349,-0.635,-0.6361,-0.6352,-0.6353,-0.6354,-0.6354,-0.6382,-0.6382,0,0,0,0,0,0,-0.6315,-0.6317,-0.6333,-0.6334,-0.6323,-0.6331,-0.6332,-0.6336,-0.6342,-0.6343,-0.6338,-0.6337,-0.6348,-0.6349,-0.635,-0.6362,-0.6353,-0.6354,-0.6354,-0.6382,-0.6382,-0.6382,0,0,0,0,0,0,-0.6314,-0.6316,-0.6333,-0.6325,-0.6327,-0.6331,-0.6336,-0.6336,-0.6339,-0.6343,-0.6344,-0.634,-0.6348,-0.6349,-0.6358,-0.6363,-0.6354,-0.6355,-0.6381,-0.6382,-0.6382,-0.6386,0,0,0,0,0,0,-0.6314,-0.6316,-0.632,-0.6325,-0.6328,-0.634,-0.6336,-0.6337,-0.634,-0.634,-0.6346,-0.6346,-0.6347,-0.6357,-0.6359,-0.6363,-0.6355,-0.6381,-0.6381,-0.6382,-0.6386,-0.6387,-0.6388,0,0,0,0,0,-0.6313,-0.632,-0.632,-0.6322,-0.6332,-0.6341,-0.6342,-0.6343,-0.6341,-0.6344,-0.6347,-0.6346,-0.6362,-0.6358,-0.636,-0.6365,-0.6381,-0.6381,-0.6382,-0.6385,-0.6387,-0.6388,0,0,0,0,0,0,-0.6314,-0.6321,-0.6321,-0.633,-0.6335,-0.634,-0.6345,-0.6345,-0.635,-0.635,-0.6351,-0.6352,-0.6361,-0.6364,-0.6359,-0.6375,-0.6371,-0.6372,-0.6373,-0.6374,-0.6375,-0.6374,-0.6356,0,0,0,0,0,-0.6316,-0.6322,-0.6327,-0.6335,-0.6338,-0.6341,-0.6345,-0.6345,-0.635,-0.6352,-0.6356,-0.6361,-0.6367,-0.6371,-0.6377,-0.6387,-0.6388,-0.6391,-0.6392,-0.6393,-0.6394,-0.64,-0.6401,-0.6385,-0.6385,-0.6385,0,0,-0.6318,-0.6323,-0.6327,-0.6335,-0.6339,-0.6346,-0.6343,-0.6349,-0.6354,-0.6353,-0.6362,-0.6365,-0.637,-0.638,-0.6384,-0.6382,-0.6399,-0.6394,-0.6395,-0.6395,-0.6401,-0.6402,-0.6404,-0.6385,-0.6385,-0.6385,0,0,-0.6327,-0.6331,-0.6338,-0.6342,-0.6348,-0.6351,-0.6353,-0.6359,-0.6361,-0.637,-0.6369,-0.6375,-0.6386,-0.639,-0.6393,-0.6405,-0.6404,-0.6407,-0.6412,-0.6418,-0.6419,-0.642,-0.6424,-0.6426,-0.6408,-0.6408,-0.6408,0,-0.633,-0.6339,-0.6342,-0.6349,-0.6353,-0.6353,-0.6361,-0.6364,-0.6372,-0.6375,-0.6373,-0.6387,-0.639,-0.6401,-0.6404,-0.6407,-0.6409,-0.6406,-0.6419,-0.642,-0.6421,-0.6425,-0.6427,-0.6408,-0.6408,-0.6408,-0.6408,0,-0.6342,-0.6349,-0.6354,-0.6362,-0.6367,-0.6374,-0.6378,-0.6382,-0.6383,-0.6386,-0.6396,-0.64,-0.6407,-0.641,-0.6411,-0.6421,-0.642,-0.6418,-0.6414,-0.6423,-0.6427,-0.6428,-0.6408,-0.6408,-0.6408,-0.6408,0,0,-0.6351,-0.6361,-0.6363,-0.6367,-0.6374,-0.638,-0.6387,-0.6395,-0.6399,-0.6404,-0.6411,-0.642,-0.6419,-0.6423,-0.6424,-0.643,-0.6439,-0.6427,-0.6428,-0.6429,-0.6451,-0.6452,-0.6454,-0.6439,-0.6439,-0.6439,-0.6451,0,-0.636,-0.6373,-0.6376,-0.6388,-0.6395,-0.6396,-0.6402,-0.6408,-0.6411,-0.6417,-0.6421,-0.6427,-0.6425,-0.6428,-0.6433,-0.6437,-0.6443,-0.6436,-0.6445,-0.6445,-0.6443,-0.6456,-0.6457,-0.6467,-0.6452,-0.6452,-0.6453,0,-0.6372,-0.6379,-0.6391,-0.6399,-0.6402,-0.6407,-0.6415,-0.6421,-0.6427,-0.6429,-0.6434,-0.6436,-0.6444,-0.644,-0.6451,-0.6446,-0.645,-0.6453,-0.6453,-0.6454,-0.6449,-0.6456,-0.647,-0.6472,-0.6455,-0.6455,-0.6455,0,-0.6377,-0.6389,-0.6398,-0.6402,-0.6411,-0.6415,-0.6419,-0.6425,-0.643,-0.6436,-0.6439,-0.6447,-0.6451,-0.6456,-0.646,-0.6457,-0.6471,-0.6467,-0.6473,-0.6473,-0.6475,-0.6475,-0.649,-0.6478,-0.6478,-0.6478,-0.6478,0,-0.6387,-0.6394,-0.6401,-0.6406,-0.6415,-0.6419,-0.6427,-0.6431,-0.6437,-0.6443,-0.6445,-0.6451,-0.6455,-0.6462,-0.6464,-0.6474,-0.6475,-0.6477,-0.6478,-0.6477,-0.6477,-0.6479,-0.6478,-0.6479,-0.6479,-0.6479,-0.6479,0,-0.6393,-0.6398,-0.6408,-0.6416,-0.6418,-0.6424,-0.6431,-0.6437,-0.6441,-0.6449,-0.6451,-0.6457,-0.6465,-0.6469,-0.6479,-0.6481,-0.6491,-0.6491,-0.6489,-0.6489,-0.6494,-0.6494,-0.6511,-0.6513,-0.6501,-0.6501,-0.6501,0,-0.6399,-0.6405,-0.6414,-0.6419,-0.6423,-0.643,-0.6435,-0.6439,-0.6444,-0.6453,-0.6458,-0.6466,-0.6473,-0.6486,-0.6491,-0.6498,-0.6499,-0.6504,-0.65,-0.6499,-0.6499,-0.6498,-0.6499,-0.6505,-0.6505,-0.6505,-0.6505,0,-0.6409,-0.6411,-0.6418,-0.6426,-0.6432,-0.6439,-0.6446,-0.6449,-0.6455,-0.646,-0.6469,-0.6474,-0.6485,-0.6493,-0.6501,-0.6505,-0.6506,-0.6507,-0.6508,-0.6507,-0.6506,-0.6506,-0.6491,-0.6506,-0.6506,-0.6506,-0.6506,-0.6506,-0.6415,-0.6421,-0.6428,-0.6436,-0.6442,-0.6448,-0.6454,-0.6459,-0.6466,-0.6475,-0.6477,-0.6486,-0.6494,-0.6505,-0.6509,-0.6517,-0.6515,-0.6518,-0.6518,-0.6519,-0.6519,-0.6505,-0.6518,-0.6518,-0.6518,-0.6518,-0.6518,0,-0.6425,-0.643,-0.6438,-0.6447,-0.6454,-0.6454,-0.6462,-0.6467,-0.6475,-0.6482,-0.6489,-0.6499,-0.6507,-0.6513,-0.6522,-0.6527,-0.6527,-0.6529,-0.6528,-0.6529,-0.652,-0.6517,-0.6528,-0.6528,-0.6528,-0.6528,-0.6528,-0.6528,-0.6431,-0.644,-0.6444,-0.6456,-0.6461,-0.6471,-0.6475,-0.6481,-0.6486,-0.6498,-0.6505,-0.6509,-0.6515,-0.6525,-0.6532,-0.6534,-0.6537,-0.6538,-0.654,-0.6531,-0.653,-0.6529,-0.6527,-0.6539,-0.6539,-0.6549,-0.6549,-0.6549]}]]